Time,TemperatureF,DewpointF,PressureIn,WindDirection,WindDirectionDegrees,WindSpeedMPH,WindSpeedGustMPH,Humidity,HourlyPrecipIn,Conditions,Clouds,dailyrainin,SoftwareType,DateUTC
2013-11-10 00:07:00,31.2,19.0,30.16,ENE,62,0.0,2.0,62,0.00,,,0.00,weatherlink.com 1.10,2013-11-10 07:07:00,
2013-11-10 00:23:00,31.6,19.0,30.16,NE,37,0.0,3.0,61,0.00,,,0.00,weatherlink.com 1.10,2013-11-10 07:23:00,
2013-11-10 00:38:00,32.3,19.0,30.16,ENE,73,0.0,1.0,59,0.00,,,0.00,weatherlink.com 1.10,2013-11-10 07:38:00,
2013-11-10 00:53:00,33.4,19.0,30.16,NE,56,1.0,4.0,55,0.00,,,0.00,weatherlink.com 1.10,2013-11-10 07:53:00,
2013-11-10 01:08:00,32.4,19.0,30.16,NE,43,2.0,3.0,58,0.00,,,0.00,weatherlink.com 1.10,2013-11-10 08:08:00,
2013-11-10 01:23:00,32.5,19.0,30.16,East,99,1.0,3.0,57,0.00,,,0.00,weatherlink.com 1.10,2013-11-10 08:23:00,
2013-11-10 01:38:00,31.6,18.0,30.17,ENE,63,0.0,1.0,58,0.00,,,0.00,weatherlink.com 1.10,2013-11-10 08:38:00,
2013-11-10 01:53:00,31.4,18.0,30.17,ENE,63,0.0,1.0,58,0.00,,,0.00,weatherlink.com 1.10,2013-11-10 08:53:00,
2013-11-10 02:08:00,31.7,18.0,30.16,ENE,64,0.0,0.0,58,0.00,,,0.00,weatherlink.com 1.10,2013-11-10 09:08:00,
2013-11-10 02:23:00,31.8,18.0,30.17,ENE,71,0.0,0.0,58,0.00,,,0.00,weatherlink.com 1.10,2013-11-10 09:23:00,
2013-11-10 02:38:00,30.9,18.0,30.17,ENE,71,0.0,0.0,60,0.00,,,0.00,weatherlink.com 1.10,2013-11-10 09:38:00,
2013-11-10 02:53:00,30.5,18.0,30.16,ENE,71,0.0,0.0,59,0.00,,,0.00,weatherlink.com 1.10,2013-11-10 09:53:00,
2013-11-10 03:08:00,30.6,18.0,30.17,ENE,71,0.0,0.0,59,0.00,,,0.00,weatherlink.com 1.10,2013-11-10 10:08:00,
2013-11-10 03:23:00,30.3,18.0,30.17,ENE,63,0.0,0.0,61,0.00,,,0.00,weatherlink.com 1.10,2013-11-10 10:23:00,
2013-11-10 03:38:00,30.4,19.0,30.17,ENE,70,0.0,0.0,62,0.00,,,0.00,weatherlink.com 1.10,2013-11-10 10:38:00,
2013-11-10 03:53:00,30.5,18.0,30.18,NE,49,3.0,5.0,61,0.00,,,0.00,weatherlink.com 1.10,2013-11-10 10:53:00,
2013-11-10 04:08:00,31.6,19.0,30.18,ENE,68,0.0,1.0,60,0.00,,,0.00,weatherlink.com 1.10,2013-11-10 11:08:00,
2013-11-10 04:23:00,30.3,19.0,30.18,ENE,69,1.0,1.0,62,0.00,,,0.00,weatherlink.com 1.10,2013-11-10 11:23:00,
2013-11-10 04:38:00,30.2,18.0,30.19,ENE,60,1.0,3.0,62,0.00,,,0.00,weatherlink.com 1.10,2013-11-10 11:38:00,
2013-11-10 04:53:00,30.1,19.0,30.20,ENE,77,1.0,1.0,63,0.00,,,0.00,weatherlink.com 1.10,2013-11-10 11:53:00,
2013-11-10 05:08:00,29.8,18.0,30.20,ENE,62,0.0,1.0,61,0.00,,,0.00,weatherlink.com 1.10,2013-11-10 12:08:00,
2013-11-10 05:23:00,30.1,18.0,30.20,ENE,62,0.0,2.0,62,0.00,,,0.00,weatherlink.com 1.10,2013-11-10 12:23:00,
2013-11-10 05:38:00,30.1,18.0,30.20,ENE,70,0.0,1.0,60,0.00,,,0.00,weatherlink.com 1.10,2013-11-10 12:38:00,
2013-11-10 05:53:00,29.4,17.0,30.20,ENE,68,0.0,2.0,61,0.00,,,0.00,weatherlink.com 1.10,2013-11-10 12:53:00,
2013-11-10 06:08:00,29.3,18.0,30.20,ENE,71,1.0,1.0,64,0.00,,,0.00,weatherlink.com 1.10,2013-11-10 13:08:00,
2013-11-10 06:23:00,28.7,18.0,30.21,ENE,70,0.0,2.0,65,0.00,,,0.00,weatherlink.com 1.10,2013-11-10 13:23:00,
2013-11-10 06:38:00,30.2,18.0,30.22,ENE,77,0.0,3.0,62,0.00,,,0.00,weatherlink.com 1.10,2013-11-10 13:38:00,
2013-11-10 06:53:00,30.8,17.0,30.21,ENE,78,1.0,2.0,57,0.00,,,0.00,weatherlink.com 1.10,2013-11-10 13:53:00,
2013-11-10 07:08:00,33.2,20.0,30.23,ENE,60,0.0,3.0,59,0.00,,,0.00,weatherlink.com 1.10,2013-11-10 14:08:00,
2013-11-10 07:23:00,34.5,20.0,30.23,East,84,0.0,2.0,56,0.00,,,0.00,weatherlink.com 1.10,2013-11-10 14:23:00,
2013-11-10 07:38:00,36.3,19.0,30.24,East,89,2.0,2.0,49,0.00,,,0.00,weatherlink.com 1.10,2013-11-10 14:38:00,
2013-11-10 07:54:00,39.7,21.0,30.24,East,83,0.0,1.0,48,0.00,,,0.00,weatherlink.com 1.10,2013-11-10 14:54:00,
2013-11-10 08:09:00,43.0,19.0,30.23,East,88,0.0,2.0,38,0.00,,,0.00,weatherlink.com 1.10,2013-11-10 15:09:00,
2013-11-10 08:24:00,45.9,17.0,30.24,East,84,0.0,3.0,31,0.00,,,0.00,weatherlink.com 1.10,2013-11-10 15:24:00,
2013-11-10 08:39:00,46.5,16.0,30.24,South,186,2.0,5.0,29,0.00,,,0.00,weatherlink.com 1.10,2013-11-10 15:39:00,
2013-11-10 08:54:00,46.5,16.0,30.24,ESE,109,1.0,9.0,30,0.00,,,0.00,weatherlink.com 1.10,2013-11-10 15:54:00,
2013-11-10 09:09:00,47.7,14.0,30.24,West,269,1.0,5.0,26,0.00,,,0.00,weatherlink.com 1.10,2013-11-10 16:09:00,
2013-11-10 09:24:00,49.4,16.0,30.24,SE,136,1.0,7.0,26,0.00,,,0.00,weatherlink.com 1.10,2013-11-10 16:24:00,
2013-11-10 09:39:00,52.6,13.0,30.23,SSW,207,0.0,4.0,21,0.00,,,0.00,weatherlink.com 1.10,2013-11-10 16:39:00,
2013-11-10 09:54:00,53.8,17.0,30.23,South,176,1.0,10.0,23,0.00,,,0.00,weatherlink.com 1.10,2013-11-10 16:54:00,
2013-11-10 10:09:00,53.2,16.0,30.22,SSW,206,2.0,8.0,23,0.00,,,0.00,weatherlink.com 1.10,2013-11-10 17:09:00,
2013-11-10 10:24:00,53.1,16.0,30.22,SSW,202,3.0,8.0,23,0.00,,,0.00,weatherlink.com 1.10,2013-11-10 17:24:00,
2013-11-10 10:39:00,53.6,17.0,30.22,East,92,3.0,9.0,24,0.00,,,0.00,weatherlink.com 1.10,2013-11-10 17:39:00,
2013-11-10 10:54:00,53.0,17.0,30.21,NE,53,3.0,11.0,24,0.00,,,0.00,weatherlink.com 1.10,2013-11-10 17:54:00,
2013-11-10 11:09:00,53.5,17.0,30.21,ESE,118,4.0,12.0,24,0.00,,,0.00,weatherlink.com 1.10,2013-11-10 18:09:00,
2013-11-10 11:24:00,53.3,17.0,30.20,SE,136,3.0,8.0,24,0.00,,,0.00,weatherlink.com 1.10,2013-11-10 18:24:00,
2013-11-10 11:39:00,54.0,16.0,30.19,South,176,3.0,9.0,22,0.00,,,0.00,weatherlink.com 1.10,2013-11-10 18:39:00,
2013-11-10 11:54:00,53.9,17.0,30.18,South,175,6.0,11.0,23,0.00,,,0.00,weatherlink.com 1.10,2013-11-10 18:54:00,
2013-11-10 12:09:00,53.9,17.0,30.18,SE,136,4.0,9.0,23,0.00,,,0.00,weatherlink.com 1.10,2013-11-10 19:09:00,
2013-11-10 12:24:00,53.7,15.0,30.17,ESE,107,4.0,9.0,22,0.00,,,0.00,weatherlink.com 1.10,2013-11-10 19:24:00,
2013-11-10 12:39:00,53.6,16.0,30.17,SSW,203,1.0,8.0,23,0.00,,,0.00,weatherlink.com 1.10,2013-11-10 19:39:00,
2013-11-10 12:54:00,53.6,15.0,30.16,SE,139,2.0,16.0,22,0.00,,,0.00,weatherlink.com 1.10,2013-11-10 19:54:00,
2013-11-10 13:09:00,53.3,17.0,30.16,SSW,193,2.0,9.0,24,0.00,,,0.00,weatherlink.com 1.10,2013-11-10 20:09:00,
2013-11-10 13:24:00,53.2,17.0,30.16,ENE,60,5.0,6.0,24,0.00,,,0.00,weatherlink.com 1.10,2013-11-10 20:24:00,
2013-11-10 13:39:00,52.9,17.0,30.15,ESE,104,3.0,7.0,24,0.00,,,0.00,weatherlink.com 1.10,2013-11-10 20:39:00,
2013-11-10 13:54:00,53.0,18.0,30.16,SE,141,1.0,7.0,25,0.00,,,0.00,weatherlink.com 1.10,2013-11-10 20:54:00,
2013-11-10 14:09:00,52.4,16.0,30.16,ESE,113,1.0,10.0,24,0.00,,,0.00,weatherlink.com 1.10,2013-11-10 21:09:00,
2013-11-10 14:24:00,52.4,17.0,30.16,SSW,206,0.0,7.0,25,0.00,,,0.00,weatherlink.com 1.10,2013-11-10 21:24:00,
2013-11-10 14:39:00,52.4,16.0,30.16,SSW,193,0.0,4.0,24,0.00,,,0.00,weatherlink.com 1.10,2013-11-10 21:39:00,
2013-11-10 14:54:00,51.9,16.0,30.16,SW,224,2.0,5.0,24,0.00,,,0.00,weatherlink.com 1.10,2013-11-10 21:54:00,
2013-11-10 15:09:00,51.8,17.0,30.16,South,169,1.0,4.0,25,0.00,,,0.00,weatherlink.com 1.10,2013-11-10 22:09:00,
2013-11-10 15:24:00,51.3,16.0,30.16,SSE,156,2.0,6.0,25,0.00,,,0.00,weatherlink.com 1.10,2013-11-10 22:24:00,
2013-11-10 15:39:00,50.0,16.0,30.16,SW,229,0.0,7.0,26,0.00,,,0.00,weatherlink.com 1.10,2013-11-10 22:39:00,
2013-11-10 15:54:00,49.4,17.0,30.16,South,170,0.0,3.0,27,0.00,,,0.00,weatherlink.com 1.10,2013-11-10 22:54:00,
2013-11-10 16:09:00,48.2,16.0,30.17,SSW,206,0.0,1.0,28,0.00,,,0.00,weatherlink.com 1.10,2013-11-10 23:09:00,
2013-11-10 16:25:00,46.9,17.0,30.17,South,185,0.0,4.0,30,0.00,,,0.00,weatherlink.com 1.10,2013-11-10 23:25:00,
2013-11-10 16:39:00,44.4,18.0,30.17,SSE,156,0.0,1.0,35,0.00,,,0.00,weatherlink.com 1.10,2013-11-10 23:39:00,
2013-11-10 16:54:00,41.9,18.0,30.17,SSW,193,0.0,0.0,38,0.00,,,0.00,weatherlink.com 1.10,2013-11-10 23:54:00,
2013-11-10 17:09:00,39.1,19.0,30.18,SW,218,0.0,1.0,44,0.00,,,0.00,weatherlink.com 1.10,2013-11-11 00:09:00,
2013-11-10 17:24:00,37.3,18.0,30.18,South,187,0.0,1.0,46,0.00,,,0.00,weatherlink.com 1.10,2013-11-11 00:24:00,
2013-11-10 17:39:00,35.6,18.0,30.19,WSW,255,1.0,2.0,48,0.00,,,0.00,weatherlink.com 1.10,2013-11-11 00:39:00,
2013-11-10 17:54:00,35.4,18.0,30.20,SSW,203,0.0,3.0,50,0.00,,,0.00,weatherlink.com 1.10,2013-11-11 00:54:00,
2013-11-10 18:09:00,34.4,18.0,30.20,WSW,256,0.0,2.0,52,0.00,,,0.00,weatherlink.com 1.10,2013-11-11 01:09:00,
2013-11-10 18:24:00,34.2,18.0,30.20,NW,311,0.0,2.0,52,0.00,,,0.00,weatherlink.com 1.10,2013-11-11 01:24:00,
2013-11-10 18:39:00,33.7,18.0,30.21,SW,230,0.0,2.0,54,0.00,,,0.00,weatherlink.com 1.10,2013-11-11 01:39:00,
2013-11-10 18:54:00,32.7,18.0,30.21,SW,221,1.0,2.0,55,0.00,,,0.00,weatherlink.com 1.10,2013-11-11 01:54:00,
2013-11-10 19:09:00,32.0,18.0,30.21,SW,233,0.0,2.0,56,0.00,,,0.00,weatherlink.com 1.10,2013-11-11 02:09:00,
2013-11-10 19:24:00,31.0,17.0,30.22,SW,231,0.0,1.0,57,0.00,,,0.00,weatherlink.com 1.10,2013-11-11 02:24:00,
2013-11-10 19:39:00,30.2,18.0,30.22,SW,231,1.0,1.0,60,0.00,,,0.00,weatherlink.com 1.10,2013-11-11 02:39:00,
2013-11-10 19:54:00,29.6,18.0,30.22,WSW,242,0.0,2.0,61,0.00,,,0.00,weatherlink.com 1.10,2013-11-11 02:54:00,
2013-11-10 20:09:00,29.7,17.0,30.23,WSW,245,0.0,1.0,60,0.00,,,0.00,weatherlink.com 1.10,2013-11-11 03:09:00,
2013-11-10 20:24:00,29.7,18.0,30.24,SW,234,1.0,4.0,61,0.00,,,0.00,weatherlink.com 1.10,2013-11-11 03:24:00,
2013-11-10 20:39:00,30.1,18.0,30.24,SSW,193,0.0,2.0,61,0.00,,,0.00,weatherlink.com 1.10,2013-11-11 03:39:00,
2013-11-10 20:54:00,29.8,18.0,30.24,West,275,2.0,2.0,62,0.00,,,0.00,weatherlink.com 1.10,2013-11-11 03:54:00,
2013-11-10 21:09:00,28.8,18.0,30.25,SW,226,0.0,1.0,64,0.00,,,0.00,weatherlink.com 1.10,2013-11-11 04:09:00,
2013-11-10 21:24:00,29.7,18.0,30.25,SSW,195,0.0,4.0,63,0.00,,,0.00,weatherlink.com 1.10,2013-11-11 04:24:00,
2013-11-10 21:40:00,30.1,18.0,30.25,SW,225,0.0,2.0,62,0.00,,,0.00,weatherlink.com 1.10,2013-11-11 04:40:00,
2013-11-10 21:55:00,29.4,18.0,30.25,West,259,0.0,1.0,62,0.00,,,0.00,weatherlink.com 1.10,2013-11-11 04:55:00,
2013-11-10 22:10:00,29.2,18.0,30.25,SSW,212,0.0,3.0,64,0.00,,,0.00,weatherlink.com 1.10,2013-11-11 05:10:00,
2013-11-10 22:25:00,28.6,18.0,30.25,SW,219,0.0,1.0,64,0.00,,,0.00,weatherlink.com 1.10,2013-11-11 05:25:00,
2013-11-10 22:40:00,28.2,18.0,30.25,SW,219,0.0,1.0,66,0.00,,,0.00,weatherlink.com 1.10,2013-11-11 05:40:00,
2013-11-10 22:55:00,28.3,18.0,30.25,SW,229,0.0,1.0,66,0.00,,,0.00,weatherlink.com 1.10,2013-11-11 05:55:00,
2013-11-10 23:10:00,28.7,19.0,30.25,SW,231,0.0,1.0,66,0.00,,,0.00,weatherlink.com 1.10,2013-11-11 06:10:00,
2013-11-10 23:25:00,29.0,19.0,30.25,SW,229,0.0,1.0,66,0.00,,,0.00,weatherlink.com 1.10,2013-11-11 06:25:00,
2013-11-10 23:40:00,28.7,19.0,30.25,SW,228,0.0,1.0,67,0.00,,,0.00,weatherlink.com 1.10,2013-11-11 06:40:00,
2013-11-10 23:55:00,29.9,19.0,30.25,SW,224,1.0,4.0,63,0.00,,,0.00,weatherlink.com 1.10,2013-11-11 06:55:00,